Find Starlink 5117

NORAD ID: 54172 Int'l Des: 2022-141 Owner: SPXS Country: US Constellation: starlink operational
LEOCIRCULAR

当前视图

正在加载3D地球...

About Starlink 5117

Starlink 5117 (NORAD 54172) is a starlink constellation satellite (v1.5) launched Oct 28, 2022 by SPXS of US. It operates in LEO, CIRCULAR orbit with a mass of 305.00 kg.

即将过境

Passes for default location (London). Set your location on the main map for personalized predictions.

高度历史

Loading altitude history...

两行轨道根数

1 54172U 22141R 26257.92221965 .00000110 00000-0 14681-4 0 9993
2 54172 53.1586 220.0857 0001248 94.3228 265.7917 15.33556946214625
Epoch: Sep 14, 2026 • Age: 22 hours

当前状态

高度 470.2 km
远地点 / 近地点 N/A
速度 7.64 km/s
星下点 49.61°N, 23.04°W
发射日期 Oct 28, 2022
运行时间 3.8 years
类型 internet

技术详情

分类 Payload
质量 305.00 kg
干质量 290.00 kg
长度 0.20 m
跨度 9.00 m
形状 ? Box + pan
制造商 SPXS
平台类型 Starlink
阶段状态 In Orbit
所有者/国家 SPXS/US

Most Searched